Skip Page Navigation
NASA JPL Caltech
NASA Logo - Jet Propulsion Laboratory + View the NASA Portal
+ Center for Near-Earth Object Studies
JPL Home Earth Solar System Stars & Galaxies Technology
JPL Solar System Dynamics
BODIES ORBITS EPHEMERIDES TOOLS PHYSICAL DATA DISCOVERY FAQ SITE MAP
IMPORTANT: The SSD Announcement email list is now available. Major changes are coming in the near future, including possible hostname and/or URL changes. To be notified of such changes, subscribe to this email list.

Please visit this page for more details.


JPL Small-Body Database Browser
Search: [ help ]  
385447 (2003 QF113)
Classification: TransNeptunian Object          SPK-ID: 2385447
Ephemeris | Orbit Diagram | Orbital Elements | Physical Parameters | Discovery Circumstances ]

[ show orbit diagram ]
Orbital Elements at Epoch 2458600.5 (2019-Apr-27.0) TDB
Reference: JPL 5 (heliocentric ecliptic J2000)
 Element Value Uncertainty (1-sigma)   Units 
e .03286531495265456 0.00050128  
a 43.98113263138399 0.027458 au
q 42.53567885547908 0.0047936 au
i 4.453471297974251 0.00074782 deg
node 114.0762743577909 0.0048742 deg
peri 200.1476283292685 0.56297 deg
M 21.54304797239264 0.51203 deg
tp 2452225.169719504008
(2001-Nov-11.66971950)
155.76 TDB
period 106536.4058010615
291.68
99.768
0.2731
d
yr
n .003379126574555542 3.1645e-06 deg/d
Q 45.4265864072889 0.02836 au
  Orbit Determination Parameters
   # obs. used (total)      21  
   data-arc span      3695 days (10.12 yr)  
   first obs. used      2003-08-25  
   last obs. used      2013-10-06  
   planetary ephem.      DE431  
   SB-pert. ephem.      SB431-N16  
   condition code      4  
   norm. resid. RMS      .21108  
   source      ORB  
   producer      Otto Matic  
   solution date      2017-Apr-09 22:43:37  

Additional Information
 Earth MOID = 41.5214 au 
 Jupiter MOID = 37.4451 au 
 T_jup = 5.912 
[ show covariance matrix ]

Ephemeris | Orbit Diagram | Orbital Elements | Physical Parameters | Discovery Circumstances ]

Physical Parameter Table
Parameter Symbol Value Units Sigma Reference Notes
absolute magnitude H 6.6   n/a MPO157385  

385447 (2003 QF113)          Discovered 2003-Aug-25 by Buie, M. W. at Cerro Tololo
Reference: Last Updated: 2014-02-19
Ephemeris | Orbit Diagram | Orbital Elements | Physical Parameters | Discovery Circumstances ]
ABOUT SSD CREDITS/AWARDS PRIVACY/COPYRIGHT GLOSSARY LINKS
FirstGov
(server date/time)  
NASA Home Page
Site Manager:   Ryan S. Park
Webmaster  Alan B. Chamberlin